Погода в Рославле

Хотите узнать прогноз погоды в Рославле? Тогда Вам сюда: Погода в Рославле

Поиск расширенной информации на нашем сайте:

Полезная информация:

Новости сайта



02.01.2020
Опубликован Долгосрочный прогноз погоды по городам России и ближнего зарубежья на январь 2020 года.
Карты: Прогноз на январь и февраль 2020 года, Сравнение прогнозируемой аномалии приземной температуры воздуха на январь 2020 года по разным моделям.




Погода в Рославле - сегодня

Время (UTC), дата Ветер
(°,м/с) 
Видим.   Явления Облачность Т
(°С)
Тd
(°С)
f(%) Тe
(°С)
Pmin
(гПа)
dP
(гПа)
Po
(мм)
O2
(г/м3)
Тmin Tmax R s Состояние
почвы
09 19.09.20 290 (З) 20000 м    9/8 840 м средняя 
[Cu med, cong|Ac trans]
+12.4 +8 74 +12  1017.5  -0.2  743  285           
12 19.09.20 320 (СЗ) 20000 м    9/9 660 м 
[Cu Sc]
+11.7 +8.1 79 +11  1018.1  0.5  743  286           
15 19.09.20 290 (З) 20000 м    5/5 1000 м 
[Cu med, cong]
+11.3 +7.6 78 +11  1017.5  -0.6  743  286           
18 19.09.20 270 (З) 20000 м    ясно 
+7.3 +5.9 91 +7  1018.5  0.6  743  291    +13.4       
21 19.09.20 270 (З) 20000 м    ясно 
+6.8 +5.5 91 +6  1018.3  -0.3  743  291           
00 20.09.20 300 (СЗ) 20000 м    ясно 
+6.4 +5.1 91 +5  1019  0.7  744  292           
03 20.09.20 320 (СЗ) 20000 м    ясно 
+5.3 +4.1 92 +4  1020.7  1.5  745  294  +5.3         
06 20.09.20 330 (СЗ) 20000 м    1/1 600 м 
[Cu hum]
+8.3 +5.5 83 +8  1021.9  1.5  746  291  +4.6        влажная 
09 20.09.20 330 (СЗ) 20000 м    8/6 600 м верхняя 
[Cu med, cong|Ci fib]
+12.4 +5.1 61 +12  1022.6  747  287           
12 20.09.20 300 (СЗ) 20000 м    6/3 600 м верхняя 
[Cu med, cong|Cs]
+13.8 +3.7 50 +13  1022  -0.4  746  286           
15 20.09.20 300 (СЗ) 20000 м    4/3 600 м верхняя 
[Cu hum|Cs]
+12.5 +3.8 55 +12  1022.3  0.2  747  287           
18 20.09.20 250 (З) 20000 м    ясно 
+6.8 +4.2 83 +6  1023  0.1  747  293    +14.1       
21 20.09.20 230 (ЮЗ) 20000 м    ясно 
+4.9 +3.5 91 +4  1023.3  0.1  747  295           
00 21.09.20 230 (ЮЗ) 20000 м    ясно 
+3.6 +2.6 93 +2  1023.1  -0.3  746  296           
03 21.09.20 220 (ЮЗ) 20000 м    3/0 верхняя 
[Ci fib]
+3.2 +2.2 93 +2  1022.7  -0.4  746  297  +3.1         
06 21.09.20 250 (З) 20000 м    6/0 верхняя 
[Ci fib]
+7.3 +5 85 +7  1022.2  0.1  746  292  +3.1        влажная 
09 21.09.20 240 (ЮЗ) 20000 м    9/0 верхняя 
[Cs]
+13.6 +6.9 64 +14  1021.1  -0.4  746  285           
12 21.09.20 250 (З) 20000 м    9/3 300 м верхняя 
[Sc diur, vesp|Cs]
+15.4 +7.1 58 +15  1020.4  -0.5  745  283           
15 21.09.20 240 (ЮЗ) 20000 м    9/4 300 м верхняя 
[Sc diur, vesp|Cs]
+14.4 +9.1 70 +15  1020.2  -0.3  745  284           
18 21.09.20 230 (ЮЗ) 20000 м    4/0 верхняя 
[Cs]
+10.6 +8.6 87 +10  1020.3  -0.2  745  287    +15.9       
21 21.09.20 240 (ЮЗ) 20000 м    4/0 средняя 
[Ac trans]
+9.8 +7.8 87 +9  1019.8  -0.6  745  288           
00 22.09.20 230 (ЮЗ) 20000 м    5/0 средняя, верхняя 
[Ac trans|Ci fib]
+8.4 +7 91 +8  1020  745  290           
03 22.09.20 220 (ЮЗ) 20000 м    4/0 верхняя 
[Cs]
+7.8 +6.2 90 +7  1019.9  -0.1  744  291  +7.7         
06 22.09.20 230 (ЮЗ) 20000 м    9/0 верхняя 
[Cs]
+9.7 +7.4 86 +9  1019.8  0.1  745  288  +7.5        влажная 
09 22.09.20 260 (З) 20000 м    5/0 верхняя 
[Ci fib]
+17.4 +9.7 61 +18  1019.4  0.3  745  280           
Время (UTC), дата Ветер
(°,м/с) 
Видим.   Явления Облачность Т
(°С)
Тd
(°С)
f(%) Тe
(°С)
Pmin
(гПа)
dP
(гПа)
Po
(мм)
O2
(г/м3)
Тmin Tmax R s Состояние
почвы

Для получения пояснительной информации подведите курсор к названию столбца.

ПОГОДА в Рославле - архив

Всё, что Вы хотите узнать о погоде в Рославле - удобно и подробно!

Выберите нужную дату (начиная с 1 января 2019* года) и нажмите кнопку "Найти".
Будут отображены архивные сводки погоды по пункту Рославль, начиная с указанной даты.


Отображать данные в формате CSV (для использования в таблицах Excel)


Внимание! Наш архив погоды предназначен исключительно для личного некоммерческого использования в познавательных целях. Если Вам необходимы официальные справки о состоянии погоды (для производственных, юридических, коммерческих и т.п. целей), обращайтесь в органы Росгидромета.

*Примечание: данная дата относится к архиву по метеостанциям СССР (Россия, СНГ, Балтия).
Архив по метеостанциям Зарубежной Европы и Азии (кроме Китая) хранится 10 дней, по другим регионам земного шара (Китай, Африка, Америка, Австралия, Океания) - 1 день.

Рославль - район местоположения метеостанции


Название, широта, долгота, высота метеостанции:
Рославль 53.9°ш. 32.8°д. 224 м над ур. моря [Российская Федерация]

Дополнительная информация

В oтличие oт бoльшинства пoгoдных сайтoв мы публикуем пoдрoбную метеoинфoрмацию в детальнoм прoфессиoнальнoм фoрмате.

Характеристики температуры и влажнoсти вoздуха измеряются на высoте 2 м в тени вдали oт зданий и деревьев.
Скoрoсть ветра измеряется на высoте 10 м (на урoвне рoста челoвека скoрoсть ветра ниже в 1.5-2 раза). Если метеoстанция нахoдится в гoрoде или в лесу, тo скoрoсть ветра занижена на 2-4 м/с пo сравнению с oткрытым местoм. Скoрoсть ветра над акватoриями крупных рек и oзёр, а также на вершинах хoлмoв на 2-5 м/с выше, чем в oбычных услoвиях.
Атмoсфернoе давление в разных тoчках местнoсти мoжет значительнo oтличаться oт давления на метеoстанции, в зависимoсти oт услoвий рельефа (при пoдъёме на 10 м давление пoнижается примернo на 1 мм рт.ст.).